Location: Prague
(50.0830°N, 14.4670°E)
Time: 11:56:59
(UTC+01:00)

Oscar 11 - Pass Details

Date: 08 December 2021
Orbit: 611 x 625 km, 97.6° (Epoch: 23 January)

Event Time Altitude Azimuth Distance (km) Brightness Sun altitude
Rises 07:02:14 0° 0° (N) 2,918 10.2 -7.1°
Reaches altitude 10° 07:05:05 10° 340° (NNW) 2,004 9.2 -6.7°
Maximum altitude 07:07:50 17° 301° (WNW) 1,595 8.5 -6.3°
Drops below altitude 10° 07:10:35 10° 261° (W) 1,989 9.2 -5.9°
Sets 07:13:25 0° 241° (WSW) 2,887 10.2 -5.5°
